This is the latest recevied weather packets stored in our database for station/object W0VI. If no packets are shown the sender has not sent any weather packets the latest 10 day(s).
| Time | Temp. | Humidity | Pressure | Rain* | Wind** | Luminosity | Snow |
|---|---|---|---|---|---|---|---|
| 1788044546 | 25.56° C | 76% | 1009.8 hPa | 0 mm | - | 75 W/m² | - |
| 1788044244 | 25.56° C | 77% | 1009.7 hPa | 0 mm | - | 135 W/m² | - |
| 1788043940 | 25.56° C | 77% | 1009.9 hPa | 0 mm | - | 145 W/m² | - |
| 1788043635 | 25.56° C | 76% | 1010 hPa | 0 mm | - | 101 W/m² | - |
| 1788043330 | 25.56° C | 75% | 1010.1 hPa | 0 mm | - | 139 W/m² | - |
| 1788043025 | 26.11° C | 74% | 1009.8 hPa | 0 mm | - | 133 W/m² | - |
| 1788042721 | 26.11° C | 74% | 1010 hPa | 0 mm | - | 298 W/m² | - |
| 1788042419 | 25.56° C | 76% | 1009.7 hPa | 0 mm | - | 262 W/m² | - |
| 1788042114 | 25.56° C | 77% | 1009.5 hPa | 0 mm | - | 231 W/m² | - |
| 1788041809 | 25° C | 77% | 1009.6 hPa | 0 mm | - | 156 W/m² | - |
| 1788041505 | 25° C | 77% | 1009.4 hPa | 0 mm | - | 143 W/m² | - |
| 1788041200 | 25° C | 76% | 1009.6 hPa | 0 mm | - | 148 W/m² | - |
| 1788040898 | 25° C | 77% | 1009.5 hPa | 0 mm | - | 270 W/m² | - |
| 1788040597 | 25° C | 77% | 1009.4 hPa | 0 mm | - | 112 W/m² | - |
| 1788040293 | 25.56° C | 76% | 1009.6 hPa | 0 mm | - | 146 W/m² | - |
| 1788039987 | 25.56° C | 76% | 1009.7 hPa | 0 mm | - | 229 W/m² | - |
| 1788039682 | 25° C | 77% | 1009.5 hPa | 0 mm | - | 216 W/m² | - |
| 1788039377 | 25° C | 76% | 1009.6 hPa | 0 mm | - | 225 W/m² | - |
| 1788039073 | 25° C | 77% | 1009.7 hPa | 0 mm | - | 149 W/m² | - |
| 1788038768 | 25° C | 77% | 1009.5 hPa | 0 mm | - | 134 W/m² | - |
| 1788038468 | 25° C | 77% | 1009.7 hPa | 0 mm | - | 113 W/m² | - |
| 1788038162 | 25° C | 77% | 1009.7 hPa | 0 mm | - | 121 W/m² | - |
| 1788037862 | 24.44° C | 77% | 1009.9 hPa | 0 mm | - | 218 W/m² | - |
| 1788037561 | 25° C | 77% | 1010 hPa | 0 mm | - | 128 W/m² | - |
| 1788037257 | 25° C | 76% | 1009.9 hPa | 0 mm | - | 98 W/m² | - |
* Rain latest hour (hover to see other rain measurements)
** Current wind speed in m/s (hover to see current wind gust speed)